Weather History for Wharton, TX

Change the Weather History Date:

Monday, August 26, 2013

  Actual Average (KPSX) Record (KPSX)
Temperature  
Mean Temperature 75 °F -  
Max Temperature 77 °F 91 °F 96 °F (1952)
Min Temperature 73 °F 74 °F 67 °F (1961)
Cooling Degree Days 10    
Growing Degree Days 25 (Base 50)    
Moisture  
Dew Point 73 °F    
Average Humidity 94    
Maximum Humidity 96    
Minimum Humidity 90    
Precipitation  
Precipitation 0.40 in - - ()
Sea Level Pressure  
Sea Level Pressure 30.08 in    
Wind  
Wind Speed 6 mph (East)    
Max Wind Speed 12 mph    
Max Gust Speed 16 mph    
Visibility 9 miles    
Events Rain    
Averages and records for this station are not official NWS values.
T = Trace of Precipitation, MM = Missing Value Source: NWS Daily Summary

Daily Weather History Graph

Daily Weather History Graph

Search for Another Location

Airport:

Trip Planner

Search our weather history database for the weather conditions in past years. The results will help you decide how hot, cold, wet, or windy it might be!

Date:

Astronomy

Aug. 26, 2013 Rise Set
Actual Time 6:59 AM CDT 7:52 PM CDT
Civil Twilight 6:34 AM CDT 8:17 PM CDT
Nautical Twilight 6:06 AM CDT 8:46 PM CDT
Astronomical Twilight 5:36 AM CDT 9:15 PM CDT
Moon 11:37 PM CDT (8/26) 12:30 PM CDT (8/26)
Length of Visible Light 13h 42m
Length of Day
12h 53m
Waning Gibbous, 66% of the Moon is Illuminated
Aug 26
Waning Gibbous
Aug 28
Last Quarter
Sep 5
New
Sep 12
First Quarter
Sep 19
Full

Hourly Weather History & Observations

Time (CDT) Temp. Dew Point Humidity Pressure Visibility Wind Dir Wind Speed Gust Speed Precip Events Conditions
12:15 AM 76.3 °F 74.5 °F 94% 30.07 in 10.0 mi NE 4.6 mph - N/A   Overcast
12:35 AM 76.3 °F 74.5 °F 94% 30.06 in 10.0 mi ENE 5.8 mph - N/A   Overcast
12:55 AM 76.3 °F 74.5 °F 94% 30.06 in 10.0 mi ENE 5.8 mph - N/A   Overcast
1:15 AM 76.1 °F 74.3 °F 94% 30.06 in 10.0 mi NE 3.5 mph - N/A   Scattered Clouds
1:35 AM 75.9 °F 74.3 °F 95% 30.06 in 10.0 mi ENE 8.1 mph - N/A   Clear
1:55 AM 75.7 °F 74.3 °F 95% 30.05 in 10.0 mi ENE 6.9 mph - N/A   Scattered Clouds
2:15 AM 75.6 °F 73.9 °F 95% 30.05 in 10.0 mi NE 4.6 mph - N/A   Scattered Clouds
2:35 AM 75.4 °F 73.8 °F 95% 30.05 in 10.0 mi NE 5.8 mph - N/A   Scattered Clouds
2:55 AM 75.2 °F 73.8 °F 95% 30.04 in 10.0 mi NE 3.5 mph - N/A   Mostly Cloudy
3:15 AM 75.0 °F 73.6 °F 95% 30.04 in 10.0 mi NE 3.5 mph - N/A   Scattered Clouds
3:35 AM 74.8 °F 73.4 °F 95% 30.05 in 10.0 mi NE 5.8 mph - N/A   Scattered Clouds
3:55 AM 75.0 °F 73.4 °F 95% 30.05 in 10.0 mi NE 3.5 mph - N/A   Clear
4:15 AM 74.8 °F 73.4 °F 95% 30.05 in 10.0 mi NE 3.5 mph - N/A   Clear
4:35 AM 74.7 °F 73.0 °F 95% 30.05 in 10.0 mi NNE 4.6 mph - N/A   Clear
4:55 AM 74.7 °F 73.2 °F 95% 30.05 in 10.0 mi NE 5.8 mph - N/A   Scattered Clouds
5:15 AM 74.7 °F 73.0 °F 95% 30.05 in 10.0 mi NE 3.5 mph - N/A   Scattered Clouds
5:35 AM 74.5 °F 73.2 °F 96% 30.05 in 10.0 mi NE 3.5 mph - N/A   Clear
5:55 AM 74.5 °F 73.0 °F 95% 30.04 in 10.0 mi NNE 6.9 mph - N/A   Clear
6:15 AM 74.5 °F 73.0 °F 95% 30.05 in 10.0 mi NE 4.6 mph - N/A   Scattered Clouds
6:35 AM 74.7 °F 73.4 °F 96% 30.07 in 10.0 mi NE 5.8 mph - N/A   Mostly Cloudy
6:55 AM 74.8 °F 73.4 °F 95% 30.07 in 10.0 mi NNE 4.6 mph - N/A   Overcast
7:15 AM 74.8 °F 73.4 °F 95% 30.08 in 10.0 mi NE 4.6 mph - N/A   Overcast
7:35 AM 74.8 °F 73.4 °F 95% 30.08 in 10.0 mi NE 5.8 mph - N/A   Overcast
7:55 AM 75.2 °F 73.8 °F 95% 30.08 in 10.0 mi NE 6.9 mph - N/A   Overcast
8:15 AM 75.6 °F 73.9 °F 95% 30.08 in 10.0 mi ENE 6.9 mph - N/A   Mostly Cloudy
8:35 AM 75.9 °F 73.4 °F 92% 30.08 in 10.0 mi ENE 4.6 mph - N/A Rain Rain
8:55 AM 76.1 °F 73.9 °F 93% 30.08 in 10.0 mi NE 8.1 mph - N/A   Mostly Cloudy
9:15 AM 76.6 °F 74.1 °F 92% 30.09 in 10.0 mi East 6.9 mph - N/A   Mostly Cloudy
9:35 AM 76.6 °F 73.6 °F 90% 30.10 in 7.0 mi ENE 9.2 mph - N/A Rain Light Rain
9:55 AM 75.2 °F 73.2 °F 94% 30.10 in 2.0 mi SE 6.9 mph - 0.09 in Rain Rain
10:15 AM 75.2 °F 73.4 °F 94% 30.11 in 5.0 mi ESE 8.1 mph - N/A   Overcast
10:35 AM 75.2 °F 73.4 °F 94% 30.11 in 4.0 mi East 8.1 mph - 0.02 in Rain Heavy Rain
10:55 AM 74.3 °F 72.7 °F 95% 30.12 in 3.0 mi ESE 9.2 mph - 0.06 in Rain Rain
11:15 AM 74.3 °F 72.7 °F 95% 30.12 in 2.5 mi ESE 9.2 mph - 0.06 in Rain Heavy Rain
11:35 AM 74.8 °F 73.6 °F 96% 30.11 in 4.0 mi ESE 6.9 mph - 0.09 in   Drizzle
11:55 AM 75.0 °F 73.6 °F 95% 30.11 in 3.0 mi ESE 8.1 mph - 0.10 in   Drizzle
12:15 PM 75.6 °F 73.9 °F 95% 30.11 in 7.0 mi ESE 9.2 mph - N/A   Overcast
12:35 PM 75.4 °F 73.8 °F 95% 30.10 in 3.0 mi SE 11.5 mph 16.1 mph 0.04 in Rain Rain
12:55 PM 75.0 °F 72.9 °F 93% 30.11 in 4.0 mi SSE 9.2 mph - 0.07 in Rain Rain
1:15 PM 75.7 °F 73.4 °F 92% 30.11 in 7.0 mi SSE 9.2 mph - N/A Rain Rain
1:35 PM 76.1 °F 73.8 °F 92% 30.10 in 10.0 mi SSE 5.8 mph - N/A   Drizzle
1:55 PM 76.1 °F 74.3 °F 94% 30.10 in 2.5 mi SE 6.9 mph - 0.05 in Rain Heavy Rain
2:15 PM 75.7 °F 74.3 °F 95% 30.09 in 5.0 mi ESE 10.4 mph - 0.01 in Rain Light Rain
2:35 PM 75.4 °F 73.4 °F 94% 30.09 in 7.0 mi ESE 9.2 mph - 0.01 in Rain Light Rain
2:55 PM 76.1 °F 73.8 °F 92% 30.09 in 10.0 mi SE 8.1 mph - 0.01 in   Light Drizzle
3:15 PM 76.1 °F 73.4 °F 91% 30.08 in 10.0 mi ESE 6.9 mph - N/A   Overcast
3:35 PM 76.6 °F 74.3 °F 92% 30.08 in 10.0 mi East 5.8 mph - N/A   Light Drizzle
3:55 PM 77.2 °F 74.5 °F 91% 30.08 in 10.0 mi ESE 9.2 mph - N/A   Light Drizzle
4:15 PM 77.2 °F 74.5 °F 91% 30.08 in 10.0 mi SE 10.4 mph - N/A   Light Drizzle
4:35 PM 77.5 °F 74.3 °F 90% 30.07 in 10.0 mi SE 9.2 mph - N/A   Light Drizzle
4:55 PM 77.0 °F 73.9 °F 90% 30.07 in 10.0 mi ESE 10.4 mph - N/A   Drizzle
5:15 PM 76.3 °F 73.6 °F 91% 30.08 in 10.0 mi ESE 9.2 mph - N/A Rain Rain
5:35 PM 76.3 °F 73.8 °F 92% 30.08 in 10.0 mi ESE 6.9 mph - N/A   Light Drizzle
5:55 PM 76.1 °F 73.8 °F 92% 30.08 in 10.0 mi ESE 9.2 mph - N/A   Drizzle
6:15 PM 76.1 °F 73.9 °F 93% 30.08 in 7.0 mi ESE 8.1 mph - 0.01 in Rain Rain
6:35 PM 75.7 °F 73.9 °F 94% 30.08 in 10.0 mi East 6.9 mph - 0.01 in Rain Rain
6:55 PM 75.7 °F 74.3 °F 95% 30.08 in 10.0 mi East 5.8 mph - 0.02 in   Light Drizzle
7:15 PM 75.6 °F 74.1 °F 95% 30.07 in 10.0 mi ESE 9.2 mph - N/A Rain Light Rain
7:35 PM 75.2 °F 73.6 °F 95% 30.07 in 10.0 mi ESE 5.8 mph - N/A   Light Drizzle
7:55 PM 74.7 °F 73.2 °F 95% 30.08 in 10.0 mi ESE 5.8 mph - N/A   Scattered Clouds
8:15 PM 74.3 °F 72.5 °F 94% 30.07 in 10.0 mi East 5.8 mph - N/A   Clear
8:35 PM 74.3 °F 72.5 °F 94% 30.07 in 10.0 mi Calm Calm - N/A   Clear
8:55 PM 73.9 °F 72.5 °F 95% 30.07 in 10.0 mi Calm Calm - N/A   Clear
9:15 PM 73.8 °F 72.1 °F 95% 30.07 in 10.0 mi East 3.5 mph - N/A   Clear
9:35 PM 73.6 °F 72.1 °F 95% 30.07 in 10.0 mi ESE 3.5 mph - N/A   Clear
9:55 PM 73.6 °F 72.1 °F 95% 30.07 in 10.0 mi ENE 3.5 mph - N/A   Clear
10:15 PM 73.6 °F 72.1 °F 95% 30.07 in 10.0 mi East 4.6 mph - N/A   Clear
10:35 PM 73.6 °F 72.5 °F 96% 30.08 in 10.0 mi East 3.5 mph - N/A   Clear
10:55 PM 73.8 °F 72.5 °F 96% 30.08 in 7.0 mi East 4.6 mph - N/A   Clear
11:15 PM 73.8 °F 72.5 °F 96% 30.08 in 10.0 mi East 4.6 mph - N/A   Clear
11:35 PM 73.6 °F 72.3 °F 96% 30.08 in 10.0 mi East 3.5 mph - N/A   Clear
11:55 PM 73.0 °F 71.8 °F 96% 30.08 in 10.0 mi Calm Calm - N/A   Clear